DW7304 Weather Reports


Display with metric or nautical units.
time (UTC)temp
F
wind
direction
speed
MPH
gust
MPH
rain 1hr
in
rain 24hr
in
rain mn
in
humidity
%
barometer
mb
20191114182009 40 347 4.0 13.0 0.00 0.00 0.00 85 1010.7
20191114181109 40 316 3.0 7.0 0.00 0.00 0.00 85 1010.7
20191114180209 40 335 3.0 12.0 0.00 0.00 0.00 85 1010.7
20191114175309 40 359 5.0 12.0 0.00 0.00 0.00 85 1010.6
20191114174409 40 280 4.0 10.0 0.00 0.00 0.00 85 1010.6
20191114173510 40 345 4.0 11.0 0.00 0.00 0.00 85 1010.5
20191114172609 40 350 4.0 11.0 0.00 0.00 0.00 85 1010.3
20191114171709 40 335 4.0 10.0 0.00 0.00 0.00 84 1010.2
20191114170809 40 330 5.0 14.0 0.00 0.00 0.00 84 1010.1
20191114165909 40 352 4.0 17.0 0.00 0.00 0.00 84 1010.3
20191114165009 40 350 4.0 10.0 0.00 0.00 0.00 84 1010.1
20191114164109 40 332 5.0 14.0 0.00 0.00 0.00 84 1010.2
20191114163209 40 342 5.0 13.0 0.00 0.00 0.00 84 1010.3
20191114162309 40 355 5.0 16.0 0.00 0.00 0.00 84 1010.3
20191114161409 40 340 4.0 12.0 0.00 0.00 0.00 84 1010.2
20191114160509 40 326 4.0 12.0 0.00 0.00 0.00 84 1009.9
20191114155609 40 345 4.0 12.0 0.00 0.00 0.00 84 1009.8
20191114154709 40 10 5.0 11.0 0.00 0.00 0.00 84 1009.8
20191114153809 40 30 5.0 15.0 0.00 0.00 0.00 83 1009.7
20191114152909 40 358 4.0 16.0 0.00 0.00 0.00 83 1009.8
20191114152009 40 350 5.0 17.0 0.00 0.00 0.00 83 1009.7
20191114151109 41 11 4.0 11.0 0.00 0.00 0.00 82 1009.7
20191114150209 41 351 5.0 15.0 0.00 0.02 0.00 82 1009.6
20191114145309 42 13 5.0 16.0 0.00 0.02 0.00 81 1009.6
20191114144409 42 314 5.0 12.0 0.00 0.02 0.00 81 1009.8
20191114143509 42 1 5.0 15.0 0.00 0.02 0.00 81 1009.9
20191114142609 42 258 4.0 10.0 0.00 0.02 0.00 81 1009.8
20191114141709 42 305 4.0 13.0 0.00 0.04 0.00 81 1010.0
20191114140809 42 271 3.0 10.0 0.00 0.06 0.00 81 1010.1
20191114135909 42 284 3.0 11.0 0.00 0.06 0.00 81 1010.1
20191114135009 42 323 4.0 10.0 0.00 0.08 0.00 80 1010.1
20191114134109 42 318 4.0 9.0 0.00 0.08 0.00 80 1010.0
20191114133209 42 318 4.0 12.0 0.00 0.10 0.00 79 1009.9
20191114132309 43 299 3.0 12.0 0.00 0.12 0.00 79 1010.1
20191114131409 44 300 3.0 7.0 0.00 0.12 0.00 79 1009.8
20191114130509 43 281 4.0 15.0 0.00 0.12 0.00 79 1009.9
20191114125609 42 279 4.0 15.0 0.00 0.14 0.00 81 1010.1
20191114124709 42 282 4.0 10.0 0.00 0.19 0.00 80 1009.9
20191114123809 42 300 4.0 11.0 0.00 0.22 0.00 80 1010.3
20191114122909 42 330 3.0 10.0 0.00 0.26 0.00 80 1010.3
20191114122009 42 358 3.0 12.0 0.00 0.28 0.00 80 1010.5
20191114121109 42 347 4.0 14.0 0.00 0.28 0.00 79 1010.5
20191114120209 42 348 3.0 9.0 0.00 0.31 0.00 79 1010.4
20191114115309 43 289 3.0 12.0 0.00 0.31 0.00 79 1010.6
20191114114409 43 335 3.0 11.0 0.00 0.31 0.00 78 1010.7
20191114113509 43 341 3.0 8.0 0.00 0.31 0.00 78 1010.6
20191114112609 43 327 2.0 6.0 0.00 0.31 0.00 77 1010.6
20191114111709 44 301 2.0 7.0 0.00 0.31 0.00 77 1010.8
20191114110809 44 249 3.0 8.0 0.00 0.31 0.00 77 1010.8
20191114105909 45 287 3.0 8.0 0.00 0.31 0.00 76 1010.8
20191114105009 45 21 3.0 10.0 0.00 0.33 0.00 75 1011.0
20191114104109 47 324 3.0 9.0 0.00 0.33 0.00 76 1010.8
20191114103209 47 1 3.0 9.0 0.00 0.33 0.00 76 1010.9
20191114102309 46 306 3.0 8.0 0.00 0.33 0.00 76 1011.0
20191114101409 45 353 3.0 11.0 0.00 0.33 0.00 78 1011.2
20191114100509 45 345 4.0 9.0 0.00 0.35 0.00 78 1011.1
20191114095609 44 349 4.0 14.0 0.00 0.35 0.00 79 1011.0
20191114094709 44 32 4.0 13.0 0.00 0.35 0.00 79 1011.2
20191114093809 44 14 4.0 10.0 0.00 0.35 0.00 80 1011.1
20191114092909 44 234 4.0 11.0 0.00 0.35 0.00 80 1011.1
20191114092009 43 343 5.0 14.0 0.00 0.35 0.00 82 1011.2
20191114091109 43 48 5.0 17.0 0.00 0.35 0.00 81 1011.1
20191114090209 43 33 4.0 11.0 0.00 0.35 0.00 82 1010.9
20191114085309 42 45 4.0 15.0 0.00 0.35 0.00 82 1010.9
20191114084409 42 355 6.0 15.0 0.00 0.35 0.00 83 1010.9
20191114083509 41 22 7.0 12.0 0.00 0.35 0.00 83 1010.8
20191114082609 41 22 7.0 12.0 0.00 0.37 0.00 85 1010.9
20191114081709 40 22 7.0 12.0 0.00 0.37 0.00 85 1010.8
20191114080809 39 22 7.0 12.0 0.00 0.37 0.00 86 1010.7
20191114075909 40 22 7.0 12.0 0.00 0.37 0.00 86 1010.8
20191114075009 39 22 7.0 12.0 0.00 0.37 0.00 86 1010.7
20191114074109 39 22 7.0 12.0 0.00 0.39 0.00 86 1010.8
20191114073209 44 22 7.0 12.0 0.00 0.41 0.00 86 1010.8
20191114072309 38 22 7.0 12.0 0.00 0.43 0.00 86 1010.7
20191114071409 38 22 7.0 12.0 0.00 0.49 0.00 87 1010.8
20191114070509 38 22 7.0 12.0 0.00 0.55 0.00 87 1010.8
20191114065609 38 22 7.0 12.0 0.00 0.61 0.00 87 1010.5
20191114064709 38 22 7.0 12.0 0.00 0.65 0.00 87 1010.5
20191114063809 38 22 7.0 12.0 0.00 0.73 0.00 87 1010.5
20191114062909 38 22 7.0 12.0 0.00 0.78 0.00 87 1010.3
20191114062009 38 22 7.0 12.0 0.00 0.81 0.00 87 1010.2
20191114061109 38 22 7.0 12.0 0.00 0.86 0.00 87 1010.4
20191114060209 38 22 7.0 12.0 0.00 0.90 0.00 87 1010.0
20191114055309 38 22 7.0 12.0 0.00 0.96 0.00 87 1009.9
20191114054409 38 22 7.0 12.0 0.00 1.02 0.00 87 1009.9
20191114053509 38 22 7.0 12.0 0.00 1.06 0.00 87 1009.9
20191114052609 38 22 7.0 12.0 0.00 1.12 0.00 87 1009.7
20191114051709 38 22 7.0 12.0 0.00 1.18 0.00 87 1009.6
20191114050809 38 22 7.0 12.0 0.00 1.22 0.00 87 1009.5
20191114045909 38 22 7.0 12.0 0.00 1.26 0.00 87 1009.3
20191114045009 38 22 7.0 12.0 0.00 1.28 0.00 87 1009.4
20191114044109 38 22 7.0 12.0 0.00 1.33 0.00 87 1009.5
20191114043209 38 22 7.0 12.0 0.00 1.37 0.00 87 1009.4
20191114042309 38 22 7.0 12.0 0.00 1.41 0.00 87 1009.4
20191114041409 38 22 7.0 12.0 0.00 1.43 0.00 87 1009.4
20191114040509 38 22 7.0 12.0 0.00 1.47 0.00 87 1009.3
20191114035609 38 22 7.0 12.0 0.00 1.51 0.00 87 1009.3
20191114034709 38 22 7.0 12.0 0.00 1.53 0.00 87 1009.3
20191114033809 38 22 7.0 12.0 0.00 1.55 0.00 87 1009.4
20191114032909 38 22 7.0 12.0 0.00 1.57 0.00 87 1009.4
20191114032009 38 22 7.0 12.0 0.00 1.59 0.00 87 1009.3
20191114031109 38 22 7.0 12.0 0.00 1.59 0.00 87 1009.3
20191114030209 38 22 7.0 12.0 0.00 1.59 0.00 87 1009.4
20191114025309 38 22 7.0 12.0 0.00 1.59 0.00 87 1009.2
20191114024409 38 22 7.0 12.0 0.00 1.59 0.00 87 1009.3
20191114023509 38 22 7.0 12.0 0.00 1.61 0.00 87 1009.3
20191114022609 38 22 7.0 12.0 0.00 1.61 0.00 87 1009.2
20191114021709 38 22 7.0 12.0 0.00 1.61 0.00 87 1009.1
20191114020809 38 22 7.0 12.0 0.00 1.61 0.00 87 1009.4
20191114015909 38 22 7.0 12.0 0.00 1.61 0.00 87 1009.2
20191114015009 38 22 7.0 12.0 0.00 1.63 0.00 87 1009.2
20191114014109 38 22 7.0 12.0 0.00 1.63 0.00 88 1009.0
20191114013209 38 22 7.0 12.0 0.00 1.63 0.00 88 1009.1
20191114012309 38 22 7.0 12.0 0.00 1.65 0.00 88 1008.9
20191114011409 38 22 7.0 12.0 0.00 1.65 0.00 88 1009.0
20191114010509 38 22 7.0 12.0 0.00 1.65 0.00 87 1009.1
20191114005609 38 22 7.0 12.0 0.00 1.65 0.00 87 1009.1
20191114004709 38 22 7.0 12.0 0.00 1.65 0.00 87 1009.1
20191114003809 38 22 7.0 12.0 0.00 1.65 0.00 87 1009.0
20191114002909 38 22 7.0 12.0 0.00 1.65 0.00 87 1009.1
20191114002009 39 22 7.0 12.0 0.00 1.67 0.00 87 1008.8
20191114001109 39 22 7.0 12.0 0.00 1.69 0.00 87 1008.5
20191114000209 38 22 7.0 12.0 0.00 1.69 0.00 87 1008.3
20191113235309 38 22 7.0 12.0 0.00 1.69 0.00 87 1008.3
20191113234409 39 22 7.0 12.0 0.00 1.69 0.00 87 1008.2
20191113233509 39 22 7.0 12.0 0.00 1.71 0.00 87 1008.1
20191113232609 39 22 7.0 12.0 0.00 1.73 0.00 87 1008.1
20191113231709 39 22 7.0 12.0 0.00 1.76 0.00 87 1008.0
20191113230809 39 22 7.0 12.0 0.00 1.78 0.00 87 1008.0
20191113225909 39 22 7.0 12.0 0.00 1.80 1.79 87 1007.8
20191113225009 39 22 7.0 12.0 0.00 1.83 1.79 87 1007.9
20191113224109 39 22 7.0 12.0 0.00 1.85 1.79 88 1007.7
20191113223209 40 22 7.0 12.0 0.00 1.90 1.79 88 1007.7
20191113222309 40 22 7.0 12.0 0.00 1.92 1.79 88 1007.6
20191113221409 40 22 7.0 12.0 0.00 1.94 1.79 88 1007.7
20191113220509 40 22 7.0 12.0 0.00 1.96 1.79 88 1007.5
20191113215609 40 22 7.0 12.0 0.00 2.00 1.79 88 1007.4
20191113214709 40 22 7.0 12.0 0.00 2.08 1.79 88 1007.5
20191113213809 40 22 7.0 12.0 0.00 2.16 1.79 88 1007.2
20191113212909 40 22 7.0 12.0 0.00 2.22 1.79 88 1007.1
20191113212009 40 22 7.0 12.0 0.00 2.26 1.79 88 1007.0
20191113211109 40 22 7.0 12.0 0.00 2.30 1.79 88 1007.0
20191113210209 40 22 7.0 12.0 0.00 2.30 1.79 88 1007.0
20191113205309 40 22 7.0 12.0 0.00 2.30 1.79 88 1006.9
20191113204410 40 22 7.0 12.0 0.00 2.30 1.79 88 1006.9
20191113203509 40 22 7.0 12.0 0.00 2.30 1.79 88 1006.8
20191113202609 40 22 7.0 12.0 0.00 2.30 1.79 88 1006.5
20191113201709 40 22 7.0 12.0 0.00 2.32 1.79 88 1006.6
20191113200809 40 22 7.0 12.0 0.00 2.37 1.79 88 1006.5
20191113195909 40 22 7.0 12.0 0.00 2.39 1.79 88 1006.4
20191113195009 40 22 7.0 12.0 0.00 2.41 1.79 88 1006.2
20191113194109 40 22 7.0 12.0 0.00 2.43 1.79 88 1005.9
20191113193209 40 22 7.0 12.0 0.00 2.45 1.79 88 1005.8
20191113192309 40 22 7.0 12.0 0.00 2.45 1.79 88 1005.8
20191113191409 40 22 7.0 12.0 0.00 2.47 1.79 88 1005.6
20191113190509 40 22 7.0 12.0 0.00 2.47 1.79 88 1005.3
20191113185609 41 22 7.0 12.0 0.00 2.47 1.79 88 1005.2
20191113184709 41 22 7.0 12.0 0.00 2.47 1.79 88 1005.1
20191113183809 42 22 7.0 12.0 0.00 2.47 1.79 88 1004.9
20191113182909 42 22 7.0 12.0 0.00 2.47 1.79 89 1004.8